Location: Unspecified
(44.8237°N, 0.6475°W)
Time: 21:44:02
(UTC+01:00)

ISS - Visible Passes

Search period start: 12 November 2019 00:00
Search period end: 22 November 2019 00:00
Orbit: 412 x 421 km, 51.6° (Epoch: 13 November)

Date Brightness Start Highest point End Pass type
(mag) Time Alt. Az. Time Alt. Az. Time Alt. Az.
12 Nov -0.4 05:01:34 12° ESE 05:01:34 12° ESE 05:01:53 10° ESE visible
12 Nov -2.3 06:34:30 21° WSW 06:35:03 22° SW 06:37:43 10° S visible
13 Nov -1.7 05:48:32 21° SSE 05:48:32 21° SSE 05:49:56 10° SSE visible
20 Nov -0.7 20:01:45 10° SSW 20:01:56 11° SSW 20:01:56 11° SSW visible
21 Nov -2.0 19:13:49 10° SSW 19:15:50 22° SSE 19:15:50 22° SSE visible
